Waarnemingen

Advertentie
Mijn weer
Tarbes/Ossun, Frankrijk (7621): temperatuur & dauwpunt: 19.05.2018 12:00:00 - 25.05.2018 12:00:00 (CEST)Tarbes/Ossun, Frankrijk (7621): temperatuur 5cm: 19.05.2018 12:00:00 - 25.05.2018 12:00:00 (CEST)Tarbes/Ossun, Frankrijk (7621): temperatuur -20cm & temperatuur -100cm: 19.05.2018 12:00:00 - 25.05.2018 12:00:00 (CEST)Tarbes/Ossun, Frankrijk (7621): windsnelheid & windstoten: 19.05.2018 12:00:00 - 25.05.2018 12:00:00 (CEST)Tarbes/Ossun, Frankrijk (7621): windrichting: 19.05.2018 12:00:00 - 25.05.2018 12:00:00 (CEST)Tarbes/Ossun, Frankrijk (7621): luchtdruk: 19.05.2018 12:00:00 - 25.05.2018 12:00:00 (CEST)Tarbes/Ossun, Frankrijk (7621): zicht: 19.05.2018 12:00:00 - 25.05.2018 12:00:00 (CEST)Tarbes/Ossun, Frankrijk (7621): Zonneschijnduur: 19.05.2018 12:00:00 - 25.05.2018 12:00:00 (CEST)Tarbes/Ossun, Frankrijk (7621): neerslag: 19.05.2018 12:00:00 - 25.05.2018 12:00:00 (CEST)
Datum & Tijd tt [°C] td [°C] tt 5cm [°C] tt -20cm [°C] tt -100cm [°C] ff [km/u] ff [kn] fx [km/u] fx [kn] dd ppp [hPa] vv [km] sd [min] rr [mm]
25.05.2018 12:00:00 18,9 15,6 19,6 16,7 13,2 3 1 9 5 WNW 1013,9 17 3 0,0
25.05.2018 11:00:00 17,1 14,9 15,7 16,8 13,1 4 2 20 11 NNW 1015,0 14 7 0,4
25.05.2018 10:00:00 15,8 14,7 15,5 16,8 13,2 5 3 27 14 WZW 1016,1 8 0 0,2
25.05.2018 09:00:00 15,7 14,9 15,6 17,0 13,2 10 5 31 17 W 1015,5 7 0 0,0
25.05.2018 08:00:00 15,5 15,0 15,4 17,0 13,1 14 8 29 16 WZW 1014,9 6 0 0,0
25.05.2018 07:00:00 15,4 14,9 11,1 17,2 13,1 12 6 19 10 WZW 1014,6 4,9 0 0,0
25.05.2018 06:00:00 13,3 12,4 9,9 17,4 13,1 7 4 10 5 ZW 1014,6 19 0 0,0
25.05.2018 05:00:00 14,5 13,5 9,6 17,5 13,1 5 3 9 5 Z 1014,6 29 0 0,0
25.05.2018 04:00:00 13,9 13,1 9,7 17,6 13,1 7 4 10 5 ZZW 1014,6 25 0 0,0
25.05.2018 03:00:00 14,4 13,6 9,6 17,7 13,1 4 2 7 4 ZW 1014,6 22 0 0,0
25.05.2018 02:00:00 15,2 13,9 11,0 17,8 13,1 2 1 9 5 WNW 1014,8 14 0 0,0
25.05.2018 01:00:00 16,4 15,1 12,6 17,9 13,1 6 3 10 5 OZO 1014,9 34 0 0,0
25.05.2018 00:00:00 17,0 15,5 12,9 17,9 13,0 11 6 14 8 ZO 1015,2 33 0 0,0
24.05.2018 23:00:00 17,6 15,2 13,7 18,0 13,1 6 4 9 5 ZZO 1015,3 36 0 0,0
24.05.2018 22:00:00 18,9 15,6 15,9 17,9 13,0 8 4 11 6 ZW 1015,1 47 0 0,0
24.05.2018 21:00:00 20,5 15,1 18,7 17,9 13,0 7 4 14 7 NO 1014,4 60 0 0,0
24.05.2018 20:00:00 21,5 14,6 21,5 17,8 13,0 9 5 19 11 NO 1013,9 56 0 0,0
24.05.2018 19:00:00 22,6 14,9 23,1 17,6 13,0 6 4 18 10 ONO 1013,8 58 8 0,0
24.05.2018 18:00:00 22,1 14,7 22,4 17,3 13,0 8 4 24 13 ONO 1014,5 60 2 0,0
24.05.2018 17:00:00 24,4 15,3 31,4 17,0 13,0 7 4 37 20 NO 1014,0 60 40 0,0
24.05.2018 16:00:00 23,8 15,3 33,4 16,7 13,0 11 6 25 14 NO 1014,4 60 54 0,0
24.05.2018 15:00:00 23,4 14,7 38,0 16,4 13,0 11 6 26 14 N 1014,9 35 57 0,0
24.05.2018 14:00:00 22,3 14,9 37,2 16,2 13,0 8 5 19 11 NO 1015,2 20 60 0,0
24.05.2018 13:00:00 21,3 16,0 31,1 16,2 13,0 7 4 21 12 N 1015,8 19 56 0,0
24.05.2018 12:00:00 19,7 15,1 28,2 16,2 13,0 8 4 16 9 NNO 1016,5 19 48 0,0
24.05.2018 11:00:00 18,3 15,7 16,6 16,2 13,0 3 2 14 7 NW 1016,8 12 11 0,0
24.05.2018 10:00:00 16,6 14,4 16,7 16,2 12,9 10 5 16 8 WZW 1017,1 16 0 0,0
24.05.2018 09:00:00 16,2 15,2 15,1 16,3 12,9 5 3 12 6 NW 1016,6 17 0 0,2
24.05.2018 08:00:00 14,8 13,5 12,7 16,4 12,9 8 4 17 9 Z 1016,3 30 7 0,0
24.05.2018 07:00:00 14,1 13,0 12,8 16,5 12,9 8 4 18 10 ZZW 1016,2 25 0 0,2
24.05.2018 06:00:00 14,3 12,3 12,4 16,6 12,9 11 6 18 10 Z 1016,5 40 0 0,0
24.05.2018 05:00:00 13,7 12,3 11,0 16,8 12,9 12 7 18 10 Z 1016,6 30 0 0,0
24.05.2018 04:00:00 12,9 11,8 11,0 16,9 12,9 11 6 16 9 ZZW 1016,9 28 0 0,0
24.05.2018 03:00:00 14,3 12,7 10,3 17,0 12,9 9 5 13 7 Z 1016,7 33 0 0,0
24.05.2018 02:00:00 14,5 12,9 12,4 17,0 12,9 12 6 16 8 Z 1016,8 32 0 0,0
24.05.2018 01:00:00 15,5 14,5 14,3 17,1 12,9 8 4 10 5 ZZW 1016,8 20 0 0,0
24.05.2018 00:00:00 15,9 15,1 14,5 17,1 12,9 6 4 9 5 ZZW 1016,9 18 0 0,0
23.05.2018 23:00:00 17,1 16,1 14,8 17,1 12,9 4 2 7 4 NNW 1016,8 11 0 0,0
23.05.2018 22:00:00 17,8 16,1 16,4 17,1 12,8 3 2 11 6 ZZW 1016,2 28 0 0,0
23.05.2018 21:00:00 18,7 15,8 17,4 17,0 12,8 6 3 10 5 OZO 1016,0 42 0 0,0
23.05.2018 20:00:00 19,1 16,1 19,1 17,0 12,8 4 2 10 5 ONO 1015,9 29 0 0,0
23.05.2018 19:00:00 19,6 16,1 21,8 16,9 12,8 6 4 11 6 OZO 1015,7 37 0 0,0
23.05.2018 18:00:00 19,0 16,2 16,8 16,8 12,8 2 1 25 14 Z 1015,8 31 8 0,6
23.05.2018 17:00:00 18,0 15,3 16,6 16,6 12,8 21 11 39 21 WZW 1016,6 7 0 0,8
23.05.2018 16:00:00 22,2 13,8 26,1 16,4 12,8 10 5 24 13 N 1015,1 44 8 0,0
23.05.2018 15:00:00 22,3 13,6 28,2 16,1 12,8 13 7 27 14 N 1015,6 32 35 0,0
23.05.2018 14:00:00 22,5 14,3 26,8 16,0 12,8 10 6 26 14 NNO 1016,0 44 37 0,0
23.05.2018 13:00:00 21,1 15,0 27,2 15,8 12,8 10 6 21 11 N 1016,6 19 40 0,0
23.05.2018 12:00:00 21,8 14,4 35,3 15,7 12,8 10 5 20 11 ONO 1016,8 19 60 0,0
23.05.2018 11:00:00 20,9 14,5 28,6 15,7 12,8 5 3 14 7 NNO 1017,2 19 60 0,0
23.05.2018 10:00:00 18,9 14,2 21,5 15,8 12,8 6 3 14 8 NNO 1017,5 20 60 0,0
23.05.2018 09:00:00 17,3 13,8 14,3 15,9 12,8 3 1 10 5 N 1017,7 20 49 0,0
23.05.2018 08:00:00 13,5 12,4 10,8 16,0 12,8 4 2 11 6 ZZW 1017,9 17 55 0,0
23.05.2018 07:00:00 12,3 11,5 8,0 16,2 12,8 7 4 11 6 Z 1017,7 19 8 0,0
23.05.2018 06:00:00 12,4 11,1 9,7 16,2 12,7 6 3 11 6 Z 1017,2 24 0 0,2
23.05.2018 05:00:00 12,4 11,3 10,2 16,4 12,7 10 6 14 8 Z 1017,4 26 0 0,0
23.05.2018 04:00:00 12,5 11,2 9,0 16,5 12,7 6 3 11 6 Z 1017,4 29 0 0,0
23.05.2018 03:00:00 12,7 11,8 9,2 16,6 12,7 8 5 13 7 ZZO 1017,5 32 0 0,0
23.05.2018 02:00:00 13,3 11,9 10,2 16,8 12,7 10 6 15 8 Z 1017,6 31 0 0,0
23.05.2018 01:00:00 13,8 12,2 11,4 16,8 12,7 10 5 15 8 Z 1017,6 36 0 0,0
23.05.2018 00:00:00 14,0 12,6 11,7 16,9 12,7 8 4 13 7 Z 1017,7 38 0 0,0
22.05.2018 23:00:00 14,7 12,6 11,9 16,9 12,7 6 4 14 8 ZZO 1017,4 40 0 0,0
22.05.2018 22:00:00 16,3 13,4 13,8 16,9 12,7 9 5 16 9 ZZW 1016,6 30 0 0,0
22.05.2018 21:00:00 19,1 12,6 18,4 16,8 12,7 9 5 31 17 NNW 1015,5 56 44 0,0
22.05.2018 20:00:00 20,3 13,3 19,8 16,8 12,7 13 7 29 16 NW 1014,4 56 7 0,0
22.05.2018 19:00:00 22,3 10,1 22,9 16,5 12,7 9 5 18 10 WNW 1013,7 20 10 0,0
22.05.2018 18:00:00 21,3 10,7 23,1 16,3 12,7 8 4 21 12 WNW 1013,7 57 31 0,0
22.05.2018 17:00:00 21,6 11,3 27,8 16,1 12,6 7 4 27 14 N 1013,4 59 40 0,0
22.05.2018 16:00:00 21,5 12,9 25,5 15,8 12,6 14 7 26 14 NNW 1013,6 52 36 0,0
22.05.2018 15:00:00 21,1 12,2 25,8 15,6 12,6 11 6 27 15 NNW 1014,0 55 44 0,0
22.05.2018 14:00:00 20,9 12,8 27,2 15,4 12,6 11 6 24 13 NNW 1014,4 19 35 0,0
22.05.2018 13:00:00 20,3 11,8 32,0 15,3 12,6 10 5 28 15 NW 1014,5 60 58 0,0
22.05.2018 12:00:00 19,1 11,6 26,1 15,3 12,6 10 5 31 17 NW 1014,8 34 60 0,0
22.05.2018 11:00:00 17,2 12,1 20,6 15,3 12,6 7 4 14 8 NW 1014,9 42 33 0,0
22.05.2018 10:00:00 16,8 13,3 17,1 15,4 12,6 6 4 13 7 W 1014,8 20 60 0,0
22.05.2018 09:00:00 13,4 12,5 11,8 15,5 12,6 4 2 10 5 ZZO 1015,0 20 18 0,0
22.05.2018 08:00:00 11,7 11,2 8,0 15,6 12,6 7 4 10 5 ZZW 1014,8 20 7 0,0
22.05.2018 07:00:00 11,1 10,0 8,1 15,7 12,6 4 2 21 12 ZZW 1014,3 20 0 0,0
22.05.2018 06:00:00 12,2 11,4 10,7 15,8 12,6 17 9 23 13 Z 1013,5 37 0 2,0
22.05.2018 05:00:00 12,3 11,2 9,5 15,9 12,6 5 3 10 5 WNW 1013,8 20 0 0,0
22.05.2018 04:00:00 12,7 11,1 11,1 16,0 12,5 5 3 14 8 ZZW 1013,5 60 0 0,0
22.05.2018 03:00:00 13,8 12,2 12,8 16,1 12,6 6 4 16 9 ZZW 1013,1 53 0 0,0
22.05.2018 02:00:00 13,5 12,2 11,3 16,2 12,5 11 6 15 8 ZZO 1013,4 60 0 0,0
22.05.2018 01:00:00 13,9 12,1 11,7 16,3 12,5 9 5 13 7 ZO 1013,6 60 0 0,0
22.05.2018 00:00:00 15,0 11,8 13,2 16,4 12,5 4 2 20 11 WNW 1013,6 60 0 0,0
21.05.2018 23:00:00 15,0 11,8 13,2 16,4 12,5 9 5 19 10 WZW 1013,3 60 0 0,0
21.05.2018 22:00:00 14,6 12,1 12,9 16,5 12,5 10 5 18 10 Z 1011,6 60 0 0,0
21.05.2018 21:00:00 15,0 12,5 13,7 16,6 12,5 15 8 22 12 ZZO 1011,0 60 0 0,0
21.05.2018 20:00:00 14,9 12,8 14,1 16,6 12,5 15 8 27 15 ZZO 1011,2 60 0 0,0
21.05.2018 19:00:00 14,3 12,8 13,6 16,5 12,5 9 5 29 16 Z 1011,6 17 0 2,6
21.05.2018 18:00:00 14,9 12,9 13,9 16,3 12,5 19 11 61 33 Z 1011,1 29 0 1,2
21.05.2018 17:00:00 17,6 11,6 17,3 16,1 12,5 27 15 57 31 W 1009,4 28 0 0,0
21.05.2018 16:00:00 23,2 10,9 28,9 15,8 12,4 10 5 30 16 ONO 1008,2 60 31 0,0
21.05.2018 15:00:00 24,2 11,5 32,2 15,5 12,5 11 6 28 15 O 1008,7 60 54 0,0
21.05.2018 14:00:00 23,8 10,8 38,7 15,3 12,4 11 6 24 13 O 1009,2 60 60 0,0
21.05.2018 13:00:00 23,1 10,2 37,1 15,1 12,4 8 4 24 13 O 1009,9 60 60 0,0
21.05.2018 12:00:00 22,1 10,9 34,5 15,1 12,4 8 5 22 12 NO 1010,5 60 60 0,0
21.05.2018 11:00:00 20,6 10,4 29,4 15,1 12,4 9 5 22 12 NO 1010,9 60 60 0,0
21.05.2018 10:00:00 19,5 10,8 23,3 15,2 12,4 9 5 18 10 O 1011,2 58 60 0,0
21.05.2018 09:00:00 17,4 11,4 14,5 15,3 12,5 6 3 12 6 ZO 1011,6 59 60 0,0
21.05.2018 08:00:00 14,2 11,0 10,0 15,3 12,4 6 3 13 7 ZO 1012,1 41 57 0,0
21.05.2018 07:00:00 12,2 10,4 9,9 15,4 12,4 8 4 12 7 Z 1012,4 60 0 0,0
21.05.2018 06:00:00 12,7 10,8 9,1 15,5 12,4 8 4 12 7 Z 1012,5 50 0 0,0
21.05.2018 05:00:00 12,8 11,0 10,1 15,6 12,4 9 5 15 8 Z 1012,5 39 0 0,0
21.05.2018 04:00:00 14,1 12,1 12,9 15,7 12,4 9 5 13 7 ZZW 1012,6 35 0 0,0
21.05.2018 03:00:00 14,7 11,3 12,8 15,8 12,4 8 4 12 7 ZW 1012,8 58 0 0,0
21.05.2018 02:00:00 15,1 10,9 13,2 15,9 12,4 7 4 15 8 W 1013,1 60 0 0,0
21.05.2018 01:00:00 15,3 11,1 14,0 16,0 12,4 11 6 18 10 Z 1013,3 60 0 0,0
21.05.2018 00:00:00 15,1 11,7 14,1 16,0 12,4 10 5 18 10 Z 1013,7 22 0 0,0
20.05.2018 23:00:00 16,0 11,0 14,7 16,0 12,4 11 6 17 9 Z 1013,9 60 0 0,0
20.05.2018 22:00:00 16,6 11,3 15,3 16,0 12,4 9 5 18 10 WZW 1013,8 60 0 0,0
20.05.2018 21:00:00 17,3 11,6 16,4 15,9 12,3 13 7 29 16 Z 1013,5 60 0 0,0
20.05.2018 20:00:00 17,8 12,0 18,3 15,8 12,4 18 10 25 14 Z 1013,0 44 0 0,0
20.05.2018 19:00:00 19,2 11,7 20,7 15,6 12,3 11 6 25 13 ZZO 1012,7 57 9 0,0
20.05.2018 18:00:00 20,2 12,7 25,1 15,4 12,3 18 10 27 14 ZO 1012,7 50 16 0,0
20.05.2018 17:00:00 22,0 11,7 28,2 15,1 12,3 12 6 26 14 N 1012,6 20 42 0,0
20.05.2018 16:00:00 22,4 11,8 31,9 14,8 12,3 14 8 29 16 NNW 1013,3 52 51 0,0
20.05.2018 15:00:00 21,0 11,1 29,0 14,6 12,3 9 5 24 13 NNO 1014,2 20 45 0,0
20.05.2018 14:00:00 20,0 10,7 28,9 14,4 12,3 13 7 26 14 N 1015,1 42 56 0,0
20.05.2018 13:00:00 19,5 11,3 34,0 14,3 12,3 6 3 19 10 N 1015,8 20 60 0,0
20.05.2018 12:00:00 18,5 12,0 23,8 14,2 12,3 5 3 24 13 NW 1016,4 19 43 0,0
20.05.2018 11:00:00 15,8 11,0 20,2 14,3 12,3 7 4 19 10 NW 1017,3 23 36 0,0
20.05.2018 10:00:00 14,0 10,6 16,1 14,3 12,3 7 4 15 8 WNW 1017,9 20 3 0,0
20.05.2018 09:00:00 13,7 10,7 12,5 14,4 12,3 9 5 18 10 W 1017,9 24 55 0,0
20.05.2018 08:00:00 12,7 9,5 9,1 14,5 12,3 9 5 16 9 ZW 1017,7 29 39 0,0
20.05.2018 07:00:00 10,1 9,2 7,7 14,6 12,3 11 6 13 7 Z 1017,9 16 3 0,0
20.05.2018 06:00:00 9,9 9,0 7,1 14,7 12,3 9 5 12 7 Z 1017,7 20 0 0,0
20.05.2018 05:00:00 10,1 8,4 6,7 14,8 12,2 9 5 10 6 ZZW 1017,7 20 0 0,0
20.05.2018 04:00:00 12,0 10,1 8,1 15,0 12,3 8 4 15 8 ZZO 1017,7 26 0 0,0
20.05.2018 03:00:00 11,4 9,6 8,3 15,1 12,3 11 6 16 9 Z 1018,3 25 0 0,0
20.05.2018 02:00:00 12,2 10,6 7,8 15,2 12,3 6 4 16 9 WZW 1018,6 20 0 0,0
20.05.2018 01:00:00 13,1 11,0 9,1 15,2 12,2 8 4 18 10 ZW 1018,9 20 0 0,0
20.05.2018 00:00:00 13,8 11,7 9,9 15,3 12,2 9 5 16 9 ZZW 1018,8 20 0 0,0
19.05.2018 23:00:00 14,7 11,7 10,1 15,3 12,2 6 4 11 6 Z 1018,2 25 0 0,0
19.05.2018 22:00:00 14,0 11,3 11,4 15,2 12,2 9 5 16 9 ZZW 1017,8 28 0 0,0
19.05.2018 21:00:00 16,9 11,6 14,4 15,2 12,2 9 5 17 9 W 1017,2 34 0 0,0
19.05.2018 20:00:00 19,1 11,1 19,0 15,0 12,2 11 6 20 11 WNW 1016,4 49 41 0,0
19.05.2018 19:00:00 19,9 12,2 21,7 14,8 12,2 11 6 24 13 WNW 1016,4 38 23 0,0
19.05.2018 18:00:00 20,1 11,6 24,0 14,6 12,2 10 6 19 11 ZW 1016,5 32 40 0,0
19.05.2018 17:00:00 19,8 11,6 25,9 14,4 12,2 9 5 23 12 WZW 1017,1 20 22 0,0
19.05.2018 16:00:00 20,4 12,4 26,5 14,3 12,2 10 6 33 18 W 1017,3 19 34 0,0
19.05.2018 15:00:00 18,8 12,3 24,6 14,2 12,2 9 5 24 13 WZW 1017,9 17 20 0,0
19.05.2018 14:00:00 16,6 13,1 17,9 14,2 12,2 11 6 21 12 ZW 1018,9 14 13 0,0
19.05.2018 13:00:00 14,5 12,9 17,3 14,1 12,1 11 6 17 9 W 1019,6 9 0 0,0
19.05.2018 12:00:00 14,1 12,3 17,8 14,2 12,2 9 5 18 10 W 1019,9 12 0 0,0

tt = temperatuur
td = dauwpunt
tt 5cm = temperatuur 5cm
tt -20cm = temperatuur -20cm
tt -100cm = temperatuur -100cm
ff = windsnelheid
fx = windstoten
dd = windrichting
ppp = luchtdruk
vv = zicht
sd = Zonneschijnduur
rr = neerslag

Weerstations in de omgeving